Showing default

SKIF-D, 54153

Orbit data source: Space-Track

SKIF-D, 54153 is a payload satellite owned by RAKA (CIS) that was launched on Sat, 22 Oct 2022 UTC via a SOYUZ-2-1B launch vehicle from the Vostochny Cosmodrome (VOSTO). Payload-class satellites include a variety of spacecraft equipped with specific instruments for various scientific and technological missions. These include communications satellites like Starlink; space stations such as the ISS; scientific satellites like the Hubble; Earth observation satellites from companies like Planet Labs, Umbra, and HawkEye 360; GPS; miniature CubeSats for education and research; and military/defense satellites.

Loading next visibility...
Identifier
54153, 2022-139D
Orbit
Active
Country
Flag of CISCIS
Related business
Manufacturer
Resehetnev ISS
Mission
Operational Civil Communications
Bus & Motor
SKIF, Unknown motor
Mass
160 kg wet, ~139 kg dry
Launch date (UTC)
2022-10-22 (4 years ago)
Launch vehicle
SOYUZ-2-1B
Launch site
Vostochny Cosmodrome (VOSTO)
Object type
Payload
Rocket body
Debris
Shape & HBR
Box + 2 Pan, 1.6 m
Radar Cross Section
1.474 m², Large (>1 m²)

Expand to show TLE details & history
Last TLE update: 1 day ago

TLE from 1 day ago
0 SKIF-D
1 54153U 22139D   26172.25399733 -.00000000  00000-0  00000+0 0  9994
2 54153  89.9506  96.6667 0007391 197.6140 162.4126  5.00427053 64317
Epoch: 2026-06-21T06:05Z
TLE epoch observation values (Epoch: 2026-06-21T06:05:45.369Z)
Latitude
0.00006°
Longitude
95.77451°
Altitude
8,071.595 km
Speed
5.251 km/s
True Right ascension
06h 26m 40s
True Declination
0° 00' 00"
Sunlit
Object was in daylight at epoch
Visualization orbit readout
Latitude
Unknown
Longitude
Unknown
Altitude
Unknown
Speed
Unknown
Apparent Right ascension
Unknown
Apparent Declination
Unknown
Sunlit
N/A
Visualization observer readout
Local Sidereal Time
21:39:46
Azimuth
Unknown
Elevation
Unknown
Doppler factor
Unknown
Orbital elements
Apogee altitude
8,069.048 km
Perigee altitude
8,047.708 km
Semi-major axis
14,436.515 km
Eccentricity
0.00074
Inclination
89.9506°
RAAN
96.6667°
Arg. of periapsis
197.614°
True anomaly
162.43817°
Mean anomaly
162.4126°
Eccentric anomaly
162.42539°
Mean motion
1.25127 °/min
Orbital period
287.71 mins
BSTAR
0
Loading maneuver chart data...
Computing Atmospheric mass density...
Loading historical data...
Loading historical data...
Loading historical data...
Loading historical data...
Loading historical data...
Loading historical data...
Loading historical data...
Other satellites on launch #139 in the year 2022 (2022-10-22 UTC)

Documentation

Showing up to 5 results
|